Theta_e
326 326 326 327 326 328 329 329 328 329 328 326 325 323 323 320 317 314 313 313 312 313 313 313 312 313 315 323 323 316 319 319 318 323 338 343 344 348 348 348 349 348 348 347 347 346 343
327 327 327 327 327 327 329 329 328 329 329 327 326 324 323 322 318 314 313 313 312 314 313 313 312 313 317 323 322 322 317 319 319 317 329 338 339 342 346 348 349 347 347 346 346 345 343
329 327 327 327 327 328 328 329 328 329 329 328 327 324 324 322 319 314 313 312 314 314 314 313 311 313 318 322 323 324 321 319 319 317 318 337 333 331 345 348 347 347 348 346 344 343 342
329 327 327 328 329 329 329 329 329 329 328 328 327 324 324 322 319 314 313 316 316 314 314 312 312 313 317 323 323 324 318 317 320 318 323 333 328 327 344 345 347 348 345 350 347 345 344
328 327 328 328 329 329 329 329 329 328 327 327 326 324 324 323 316 314 318 321 321 313 313 314 316 317 321 322 321 323 315 315 319 316 330 327 325 322 325 335 349 348 349 351 350 347 345
328 327 328 328 329 329 330 329 328 327 327 327 326 324 323 323 316 320 322 323 320 318 315 316 318 321 321 320 319 322 325 323 324 324 324 321 321 325 325 330 347 349 349 351 351 348 347
327 325 327 328 329 329 329 328 327 327 327 326 325 324 323 323 318 321 322 322 319 319 320 318 319 320 321 320 318 321 326 326 324 322 324 319 325 331 328 329 332 340 346 348 349 348 349
327 325 327 328 329 330 328 327 327 326 326 326 324 323 322 321 318 320 320 319 319 319 321 319 319 320 321 320 320 321 325 325 323 326 320 323 330 322 322 324 324 324 326 329 347 348 349
325 325 327 328 329 329 327 327 327 327 327 325 322 322 321 320 318 320 319 319 319 319 319 317 318 319 321 321 322 322 324 321 322 322 321 324 323 319 321 322 322 323 327 339 346 350 347
324 325 326 327 327 327 327 327 327 328 328 327 325 321 320 321 319 320 320 319 319 319 323 321 321 321 321 321 321 324 324 321 320 323 321 322 320 321 321 322 323 328 323 330 350 351 348
327 324 324 325 326 326 326 325 325 325 325 327 327 325 321 321 322 320 320 320 319 318 325 321 321 319 320 321 319 322 323 321 321 321 321 321 319 320 321 322 323 326 324 331 347 348 347
327 326 325 324 324 325 325 325 325 325 324 323 325 327 323 320 322 319 321 320 319 322 325 323 318 318 320 318 318 319 321 321 319 319 319 321 317 319 320 320 322 327 334 337 344 346 344
327 327 326 325 325 324 324 324 324 323 323 324 322 327 323 321 319 317 321 319 319 324 319 320 318 317 319 319 320 320 322 322 322 322 322 319 320 319 319 321 322 326 331 338 343 346 340
325 324 324 324 324 324 324 324 324 324 323 323 324 325 322 323 320 319 319 321 321 321 320 321 317 315 318 318 319 318 321 323 317 318 319 321 321 320 320 322 323 327 328 333 340 342 342
324 324 324 324 324 324 324 323 322 322 323 323 322 324 323 320 317 319 320 319 319 321 323 322 317 319 318 318 319 318 320 321 322 319 321 320 320 319 319 322 323 325 329 328 330 325 335
323 322 322 321 321 321 321 321 321 322 321 323 322 324 323 319 318 319 321 319 319 319 320 320 321 318 321 319 319 319 319 319 320 318 319 320 320 319 319 320 319 325 324 327 327 332 333
321 320 319 318 318 318 318 318 318 319 321 321 322 324 322 317 318 320 320 318 317 318 320 323 320 322 319 318 319 319 320 319 317 316 317 318 319 320 319 322 323 323 325 323 326 327 330
318 317 317 316 316 316 317 317 317 317 319 320 321 323 322 317 320 314 320 318 317 319 322 323 322 323 321 319 318 319 320 320 315 316 318 319 320 321 320 318 317 318 323 325 328 328 325
315 314 313 312 312 312 313 314 315 315 316 318 320 321 324 321 322 321 317 320 320 324 324 324 321 320 318 320 321 318 318 316 314 317 320 318 320 320 322 321 319 322 320 319 321 323 327
311 310 310 310 309 309 309 310 313 314 314 317 321 325 322 320 317 319 321 323 323 323 324 323 322 320 320 320 318 320 320 319 316 316 317 317 320 321 321 322 323 324 323 321 321 324 325
308 307 307 307 307 307 307 308 308 311 312 317 322 324 320 326 325 325 324 324 326 327 324 323 322 322 322 322 320 320 320 320 319 322 318 320 323 321 321 319 322 323 323 322 323 323 323
306 306 306 306 306 306 306 306 307 308 311 314 320 323 323 324 322 324 323 326 326 325 325 325 325 324 323 323 321 322 320 320 323 324 320 316 323 321 321 320 321 322 323 325 326 323 323
307 306 306 307 308 308 307 307 306 307 309 315 320 322 321 322 324 324 325 325 325 323 324 322 324 325 323 323 318 319 317 317 317 322 321 320 322 322 322 321 321 322 322 328 333 334 332
306 309 313 313 313 313 314 314 311 307 307 313 316 320 321 323 323 323 324 324 324 324 325 323 323 324 322 321 321 315 314 316 315 317 317 321 324 322 322 322 323 325 331 327 331 339 339
311 311 311 310 310 310 311 312 313 312 308 308 315 315 319 321 319 321 322 322 322 322 322 322 323 323 323 320 322 323 321 319 319 318 318 318 322 322 323 323 323 335 337 337 335 338 340
311 311 309 309 310 310 310 310 311 311 310 308 310 314 316 318 319 319 321 322 323 323 323 322 321 321 320 319 318 323 327 323 321 318 316 318 319 323 323 322 322 322 335 335 335 332 340
310 311 312 312 312 312 311 310 310 310 310 309 308 311 314 316 317 318 321 322 321 320 321 321 321 321 315 319 322 323 324 322 321 321 321 321 320 322 323 322 323 321 334 332 332 327 339
311 312 313 313 312 312 313 312 311 311 311 310 310 309 314 315 316 318 319 320 320 320 323 321 321 319 319 321 326 324 322 324 325 323 321 322 323 322 321 323 323 326 329 334 330 332 339
312 312 312 313 313 312 312 313 312 311 311 311 310 309 310 312 315 316 316 316 318 319 320 320 320 319 320 319 321 321 322 319 324 328 322 325 321 323 323 324 321 325 328 328 328 337 340
Wind_Speed
28 27 25 22 16 13 12 12 13 14 13 13 14 13 12 10 9 9 9 7 4 2 1 1 0 4 7 7 5 9 14 14 13 13 12 6 2 2 2 3 2 2 5 2 2 4 12
26 27 27 29 22 14 11 11 11 13 14 13 13 14 13 12 10 9 8 6 2 2 1 1 2 5 8 4 9 8 12 12 12 10 11 6 2 1 4 3 1 2 7 7 2 14 16
20 20 20 22 21 19 14 12 12 14 14 12 13 14 15 12 9 8 7 4 2 2 2 2 3 5 7 6 8 6 10 12 12 11 10 5 2 1 3 4 0 3 8 9 10 10 4
23 23 22 21 19 17 15 14 15 15 14 11 13 15 15 13 10 8 4 3 3 2 3 3 5 8 4 9 7 5 8 13 15 13 8 4 4 2 1 4 2 6 4 2 4 2 7
22 23 22 22 20 17 16 17 17 16 15 14 15 16 16 13 9 5 3 2 2 3 4 5 6 6 5 6 4 4 7 12 14 13 8 2 1 2 2 2 4 2 2 4 4 3 6
21 22 22 22 20 18 17 17 17 16 16 15 15 16 17 12 6 3 3 5 4 5 5 6 5 5 4 4 5 8 10 13 8 12 6 3 2 3 3 1 6 6 4 4 4 8 6
19 21 22 21 20 20 19 18 18 18 17 16 16 15 15 12 3 4 3 1 2 1 2 1 3 1 6 5 7 11 11 8 9 7 5 2 5 7 4 3 4 3 2 4 2 2 3
19 21 22 21 20 21 20 18 19 19 20 19 18 17 14 10 3 4 5 4 6 2 2 1 4 3 6 5 5 12 11 5 4 8 4 3 9 6 3 5 2 2 1 1 1 1 4
20 20 21 22 21 21 20 20 21 21 21 21 20 19 14 8 2 4 6 6 7 4 1 1 2 3 4 9 5 12 12 6 4 6 5 7 2 6 6 5 5 4 3 1 3 3 2
19 19 20 21 21 21 21 21 22 22 23 22 22 19 15 5 2 3 1 4 5 3 1 2 3 3 7 6 3 13 11 5 2 7 6 4 1 3 3 5 6 7 8 6 7 7 3
18 18 19 19 20 21 22 23 23 24 24 23 23 21 16 4 4 5 2 3 3 2 2 4 3 4 8 4 6 8 12 5 6 6 5 3 4 6 8 5 9 1 3 8 9 8 3
18 18 18 19 20 21 23 24 24 25 25 25 24 22 17 6 3 8 4 2 2 2 3 4 4 5 6 2 2 5 5 5 5 4 1 3 1 3 3 3 10 10 7 6 4 4 6
19 19 19 20 20 21 23 24 25 26 27 26 25 22 16 6 2 9 6 2 1 3 1 5 3 4 6 5 4 5 9 9 6 5 7 2 5 3 4 4 3 7 9 6 5 5 7
19 20 21 21 22 23 25 26 26 26 27 27 25 22 10 3 7 7 8 2 3 0 3 2 3 4 7 8 4 4 6 10 3 3 3 8 5 8 8 12 7 9 12 11 12 10 8
21 22 23 24 24 25 26 26 27 27 26 26 23 18 5 2 8 7 4 3 3 3 1 1 3 4 5 5 4 5 8 9 10 11 6 6 5 2 4 3 7 6 8 3 6 2 5
23 23 24 24 25 26 27 28 28 28 26 26 24 12 4 1 10 6 2 3 2 3 2 0 5 4 10 8 9 9 9 5 8 14 9 4 4 3 2 4 4 4 8 6 3 11 15
23 24 24 25 26 26 26 27 27 27 25 23 19 5 3 5 9 3 3 4 4 6 2 3 3 3 4 5 9 7 7 4 6 8 9 7 4 3 2 5 9 4 5 1 2 3 12
24 25 25 25 26 26 26 26 26 27 24 18 9 3 2 7 2 0 3 4 2 2 2 3 2 4 5 6 8 8 11 4 8 13 10 8 4 11 13 1 4 2 5 10 9 8 1
23 24 25 25 25 25 25 24 23 23 23 20 13 6 6 8 4 4 2 3 4 3 3 1 3 5 3 3 4 7 6 4 9 12 11 10 5 7 4 4 3 5 5 3 2 1 10
25 25 25 25 25 24 23 22 20 19 17 13 6 3 2 3 1 2 3 4 4 4 4 3 3 1 2 4 6 2 6 2 8 10 6 14 6 10 11 8 3 6 9 7 9 11 13
27 27 28 27 28 26 25 22 18 15 13 8 2 1 2 1 1 4 3 1 4 4 3 3 4 4 1 3 2 6 5 3 3 8 5 7 9 9 10 6 8 9 13 12 10 8 9
25 26 26 26 26 25 23 22 19 15 11 5 3 2 2 3 4 2 2 3 10 10 6 10 8 3 2 4 2 4 4 4 6 7 7 4 8 6 8 6 10 9 11 11 8 5 8
27 28 28 27 26 25 23 21 18 13 12 5 5 5 4 4 1 2 3 4 4 1 2 1 3 2 5 7 4 12 11 11 6 3 10 7 8 6 16 7 6 9 13 13 6 7 4
28 28 28 27 26 25 24 22 19 15 14 13 11 7 5 5 7 8 6 3 3 2 3 3 7 3 2 14 17 6 8 9 9 11 9 7 6 5 11 8 15 3 2 10 11 5 8
27 28 28 26 25 23 22 21 19 18 16 19 16 13 5 5 14 9 10 10 11 7 6 10 16 13 17 11 5 5 4 4 6 5 10 7 8 6 8 12 4 3 5 9 11 8 8
26 25 25 26 26 26 23 19 17 18 15 19 23 18 15 3 6 15 12 14 7 9 7 10 14 15 9 4 4 6 10 8 6 6 2 6 2 9 4 14 16 9 11 9 7 6 14
20 21 22 25 26 25 24 20 17 17 17 15 22 23 18 10 15 13 4 6 4 3 2 3 3 2 5 4 6 8 13 6 7 7 6 5 4 12 9 8 4 1 8 9 9 4 22
15 19 25 27 32 29 24 20 16 15 17 19 20 23 23 11 13 9 9 11 9 6 3 1 2 2 2 4 5 5 5 10 10 9 5 7 7 5 3 8 12 7 7 6 2 6 21
16 21 26 29 30 33 28 18 12 12 16 20 20 16 24 20 6 8 18 25 24 15 5 3 2 1 1 2 1 0 4 3 8 12 5 10 5 4 6 7 4 2 2 5 6 4 16
Wind_Direction
6 5 3 2 356 350 348 351 357 1 -0 3 6 7 2 354 348 340 338 340 340 347 359 13 144 143 139 116 109 152 169 165 171 175 174 174 156 90 68 133 149 32 19 44 302 163 152
4 2 1 1 0 3 353 354 357 359 358 358 3 5 1 353 345 337 335 339 353 10 51 60 131 152 145 110 132 134 177 182 191 190 185 193 345 347 92 165 263 133 70 40 16 142 148
7 4 4 2 355 0 8 6 1 359 359 356 359 2 359 353 346 338 336 353 28 53 85 76 128 152 142 125 145 148 176 187 194 193 191 178 360 286 175 151 216 127 82 67 81 132 117
1 4 6 11 12 6 9 10 4 2 0 1 357 357 356 353 349 341 1 48 51 90 103 108 135 141 122 143 144 144 172 177 184 183 166 192 336 187 233 123 37 126 118 273 89 44 158
0 2 5 8 13 18 14 9 5 3 4 2 356 356 355 354 350 354 38 18 63 83 103 109 122 133 128 164 152 145 142 162 173 169 165 211 122 117 125 113 133 96 81 198 154 131 162
2 5 6 9 15 18 15 10 8 9 8 2 359 355 352 355 6 26 50 73 99 86 95 100 121 131 142 145 152 144 133 134 139 154 147 165 132 168 125 137 199 165 172 221 176 180 175
6 7 8 11 15 16 14 11 13 11 6 3 360 358 352 354 62 47 88 81 338 318 300 136 142 122 137 127 150 158 156 136 128 143 165 67 200 209 160 151 76 96 171 204 167 177 214
11 9 10 12 14 14 14 16 12 9 5 2 1 359 354 355 102 59 76 87 56 321 325 236 216 220 189 165 137 161 156 157 146 163 133 143 230 149 119 160 141 90 160 341 266 136 228
11 11 12 13 14 14 14 12 9 6 4 2 358 359 0 354 165 105 87 58 19 357 268 293 182 167 163 160 158 169 168 137 136 144 159 205 143 121 189 174 172 191 209 205 299 138 208
10 9 9 11 13 12 11 8 6 3 360 358 356 355 356 358 170 190 129 21 6 -0 24 154 202 163 157 153 114 173 172 149 106 171 154 233 151 219 170 208 198 237 207 193 182 181 263
6 6 5 4 3 3 2 2 2 359 357 356 352 349 348 323 254 190 206 343 355 329 170 138 145 162 164 164 137 177 181 166 159 153 184 185 175 194 219 222 194 245 144 198 187 193 235
359 359 357 356 355 355 354 355 355 355 353 354 352 346 343 328 259 198 204 320 336 249 196 161 143 154 155 134 107 135 168 165 126 130 183 236 221 235 224 192 193 144 109 83 107 215 240
349 350 350 351 350 349 348 348 350 350 349 351 350 345 338 325 181 180 185 183 234 231 32 167 172 173 181 165 186 166 176 186 193 186 219 227 230 224 195 195 152 198 189 211 212 208 255
342 343 343 343 342 342 342 342 342 345 345 346 348 347 344 310 183 170 161 123 233 292 195 95 123 125 188 165 188 154 165 197 171 134 155 213 215 195 173 215 206 195 220 223 229 227 233
337 337 337 337 337 337 337 338 338 341 342 340 348 353 17 39 168 169 170 198 238 202 353 140 121 181 189 199 211 173 196 210 198 187 211 183 238 234 219 187 203 162 209 253 224 81 250
333 333 334 333 333 333 333 334 333 335 340 340 344 344 6 105 170 160 145 259 252 231 333 214 230 217 193 180 187 196 186 187 191 195 201 183 254 194 154 152 72 235 143 186 220 225 240
328 328 328 328 329 330 331 332 332 331 335 342 342 336 348 155 166 165 217 234 257 242 250 230 224 213 221 189 204 195 197 195 207 169 187 167 229 181 244 199 195 157 191 80 235 261 244
328 329 329 330 330 331 332 333 335 334 336 342 353 307 320 176 193 227 194 194 226 249 216 242 240 237 223 194 184 209 211 240 177 149 176 196 225 236 245 77 296 299 240 214 230 207 230
327 327 326 327 327 327 328 330 332 336 339 350 336 283 265 213 224 215 241 229 233 219 225 204 253 224 189 232 219 214 199 195 170 172 178 174 215 224 200 170 163 211 186 186 125 162 219
326 325 324 322 321 321 323 324 327 329 333 342 329 304 312 200 289 245 195 228 233 227 232 200 269 239 206 228 222 238 223 233 185 207 202 172 177 215 229 238 157 184 188 190 216 234 234
323 323 322 320 320 319 319 318 321 319 319 330 270 277 299 309 104 331 273 236 193 193 221 217 164 92 51 267 216 219 225 216 193 180 154 195 223 206 230 228 208 198 184 178 196 229 237
321 319 318 316 315 313 312 311 311 309 300 280 268 286 323 282 285 237 221 243 241 234 231 253 249 305 220 228 287 332 333 226 220 176 187 192 226 197 232 200 212 214 196 189 207 187 231
323 322 320 319 316 312 308 304 300 293 278 227 241 266 263 258 227 223 236 240 243 239 223 326 115 273 228 241 293 292 264 268 267 250 199 185 184 195 234 210 202 236 209 197 192 198 209
321 322 322 319 316 311 305 299 291 279 257 227 221 235 243 255 238 242 259 267 234 258 295 280 317 294 342 317 313 276 240 264 231 217 210 172 188 207 233 167 226 202 238 231 216 196 198
330 331 331 329 326 322 315 299 284 275 254 227 225 223 236 259 249 256 252 259 268 273 254 264 279 266 288 313 286 256 214 215 208 214 199 220 187 206 217 217 243 158 173 175 187 201 211
337 347 352 344 335 329 322 311 281 270 270 235 224 215 234 280 232 251 253 251 243 257 258 262 264 258 256 238 225 235 234 247 202 180 167 175 247 219 170 222 232 218 183 177 151 229 187
15 3 1 354 345 332 319 308 289 258 253 252 232 214 225 240 251 267 261 243 223 198 249 266 293 274 198 201 208 230 230 200 212 215 179 177 184 211 197 224 216 191 151 153 202 251 180
16 10 4 -0 359 356 336 312 288 257 241 242 250 210 213 240 254 241 237 241 237 217 217 178 267 174 255 213 190 212 234 220 233 214 180 194 173 184 153 228 227 151 129 201 283 299 196
8 2 360 359 356 357 352 337 301 255 230 234 247 242 217 240 270 252 250 251 249 260 270 235 297 91 275 288 254 137 247 219 225 233 218 239 222 243 218 229 140 145 321 301 272 223 191